Weather History for PAHO - August, 2014

Change the Weather History Date:

Wednesday, August 13, 2014

  Actual Average Record
Temperature  
Mean Temperature 62 °F -  
Max Temperature 68 °F 60 °F 70 °F (1950)
Min Temperature 55 °F 47 °F 35 °F (1949)
Degree Days  
Heating Degree Days 4    
Growing Degree Days 12 (Base 50)    
Moisture  
Dew Point 51 °F    
Average Humidity 72    
Maximum Humidity 84    
Minimum Humidity 57    
Precipitation  
Precipitation 0.16 in - - ()
Sea Level Pressure  
Sea Level Pressure 29.56 in    
Wind  
Wind Speed 3 mph (NE)    
Max Wind Speed 9 mph    
Max Gust Speed -    
Visibility 9 miles    
Events Rain    
Averages and records for this station are not official NWS values.
T = Trace of Precipitation, MM = Missing Value Source: NWS Daily Summary

Daily Weather History Graph

Daily Weather History Graph

Search for Another Location

Airport or City:

Trip Planner

Search our weather history database for the weather conditions in past years. The results will help you decide how hot, cold, wet, or windy it might be!

Date:

Astronomy

Aug. 13, 2014 Rise Set
Actual Time 6:17 AM AKDT 10:02 PM AKDT
Civil Twilight 5:26 AM AKDT 10:52 PM AKDT
Nautical Twilight 4:09 AM AKDT 12:08 AM AKDT
Astronomical Twilight 2:43 AM AKDT 1:38 AM AKDT
Moon 10:39 PM AKDT (8/13) 11:05 AM AKDT (8/13)
Length of Visible Light 17h 26m
Length of Day
15h 44m
Waning Gibbous, 86% of the Moon is Illuminated
Aug 13
Waning Gibbous
Aug 17
Last Quarter
Aug 25
New
Sep 2
First Quarter
Sep 8
Full

Hourly Weather History & Observations

Time (AKDT) Temp. Dew Point Humidity Pressure Visibility Wind Dir Wind Speed Gust Speed Precip Events Conditions
12:53 AM 59.0 °F 50.0 °F 72% 29.55 in 5.0 mi Calm Calm - 0.01 in Rain Rain
1:53 AM 57.9 °F 51.1 °F 78% 29.54 in 10.0 mi Calm Calm - 0.04 in   Scattered Clouds
2:53 AM 57.9 °F 50.0 °F 75% 29.54 in 10.0 mi North 3.5 mph - N/A   Scattered Clouds
3:53 AM 55.9 °F 50.0 °F 80% 29.53 in 10.0 mi NE 3.5 mph - N/A   Mostly Cloudy
4:53 AM 55.9 °F 50.0 °F 80% 29.54 in 10.0 mi SW 3.5 mph - N/A   Overcast
6:53 AM 57.9 °F 51.1 °F 78% 29.52 in 8.0 mi NW 4.6 mph - 0.02 in Rain Light Rain
7:53 AM 57.0 °F 51.1 °F 81% 29.52 in 8.0 mi Calm Calm - 0.04 in Rain Light Rain
9:53 AM 57.2 °F 51.8 °F 82% 29.54 in 3.0 mi Calm Calm - N/A Rain Light Rain
10:51 AM 57.2 °F 51.8 °F 82% 29.54 in 5.0 mi North 4.6 mph - 0.05 in Rain Light Rain
10:53 AM 57.9 °F 53.1 °F 84% 29.54 in 6.0 mi NNE 3.5 mph - 0.05 in Rain Light Rain
11:01 AM 59.0 °F 53.1 °F 81% 29.54 in 10.0 mi NE 3.5 mph - 0.00 in   Overcast
11:03 AM 59.0 °F 53.1 °F 81% 29.54 in 10.0 mi Calm Calm - 0.00 in   Overcast
11:53 AM 59.0 °F 52.0 °F 78% 29.54 in 10.0 mi East 5.8 mph - 0.00 in   Overcast
12:53 PM 63.0 °F 53.1 °F 70% 29.55 in 10.0 mi East 9.2 mph - N/A   Partly Cloudy
1:53 PM 64.9 °F 52.0 °F 63% 29.55 in 10.0 mi East 9.2 mph - N/A   Partly Cloudy
2:53 PM 68.0 °F 53.1 °F 59% 29.55 in 10.0 mi East 3.5 mph - N/A   Scattered Clouds
3:53 PM 68.0 °F 53.1 °F 59% 29.56 in 10.0 mi East 4.6 mph - N/A   Mostly Cloudy
4:53 PM 66.9 °F 51.1 °F 57% 29.56 in 10.0 mi East 5.8 mph - N/A   Overcast
5:53 PM 64.0 °F 48.9 °F 58% 29.57 in 10.0 mi Calm Calm - 0.00 in   Overcast
8:53 PM 62.1 °F 50.0 °F 65% 29.61 in 10.0 mi Calm Calm - N/A   Overcast
9:53 PM 60.1 °F 51.1 °F 72% 29.63 in 10.0 mi WNW 4.6 mph - 0.00 in   Overcast
10:53 PM 61.0 °F 50.0 °F 67% 29.65 in 10.0 mi Calm Calm - N/A   Overcast
11:53 PM 61.0 °F 46.9 °F 60% 29.66 in 10.0 mi East 4.6 mph - N/A   Overcast